Weather History for KGYL - August, 2013

Change the Weather History Date:

Friday, August 30, 2013

  Actual Average (KHCD) Record (KHCD)
Temperature  
Mean Temperature 74 °F -  
Max Temperature 81 °F 80 °F 92 °F (1961)
Min Temperature 66 °F 56 °F 42 °F (2003)
Cooling Degree Days 8    
Growing Degree Days 24 (Base 50)    
Moisture  
Dew Point 65 °F    
Average Humidity 71    
Maximum Humidity 86    
Minimum Humidity 52    
Precipitation  
Precipitation 0.00 in - - ()
Sea Level Pressure  
Sea Level Pressure 29.90 in    
Wind  
Wind Speed 4 mph (North)    
Max Wind Speed 10 mph    
Max Gust Speed 17 mph    
Visibility 10 miles    
Events      
Averages and records for this station are not official NWS values.
T = Trace of Precipitation, MM = Missing Value Source: NWS Daily Summary

Daily Weather History Graph

Daily Weather History Graph

Search for Another Location

Airport or City:

Trip Planner

Search our weather history database for the weather conditions in past years. The results will help you decide how hot, cold, wet, or windy it might be!

Date:

Astronomy

Aug. 30, 2013 Rise Set
Actual Time 6:36 AM CDT 7:56 PM CDT
Civil Twilight 6:06 AM CDT 8:26 PM CDT
Nautical Twilight 5:29 AM CDT 9:02 PM CDT
Astronomical Twilight 4:50 AM CDT 9:41 PM CDT
Moon 1:08 AM CDT (8/30) 4:19 PM CDT (8/30)
Length of Visible Light 14h 20m
Length of Day
13h 19m
Waning Crescent, 29% of the Moon is Illuminated
Aug 30
Waning Crescent
Sep 5
New
Sep 12
First Quarter
Sep 19
Full
Sep 26
Last Quarter

Hourly Weather History & Observations

Time (CDT) Temp. Heat Index Dew Point Humidity Pressure Visibility Wind Dir Wind Speed Gust Speed Precip Events Conditions
12:14 AM 77.5 °F - 67.1 °F 70% 29.86 in 10.0 mi Calm Calm - N/A   Mostly Cloudy
12:33 AM 77.0 °F - 67.3 °F 72% 29.86 in 10.0 mi South 3.5 mph - N/A   Scattered Clouds
12:54 AM 76.6 °F - 67.5 °F 73% 29.86 in 10.0 mi South 3.5 mph - N/A   Scattered Clouds
1:14 AM 76.3 °F - 67.6 °F 74% 29.86 in 10.0 mi SSW 4.6 mph - N/A   Clear
1:34 AM 76.6 °F - 68.0 °F 75% 29.86 in 10.0 mi SSW 5.8 mph - N/A   Mostly Cloudy
1:54 AM 77.0 °F - 68.2 °F 74% 29.85 in 10.0 mi Calm Calm - N/A   Mostly Cloudy
2:13 AM 77.7 °F - 68.7 °F 74% 29.85 in 10.0 mi SW 3.5 mph - N/A   Scattered Clouds
2:34 AM 77.5 °F - 69.3 °F 76% 29.85 in 10.0 mi SW 4.6 mph - N/A   Clear
2:54 AM 77.0 °F - 69.4 °F 77% 29.84 in 10.0 mi Calm Calm - N/A   Clear
3:13 AM 76.1 °F - 69.3 °F 79% 29.85 in 10.0 mi WSW 4.6 mph - N/A   Clear
3:34 AM 75.4 °F - 69.4 °F 82% 29.85 in 10.0 mi West 4.6 mph - N/A   Clear
3:54 AM 76.1 °F - 69.8 °F 81% 29.85 in 10.0 mi WNW 6.9 mph - N/A   Clear
4:13 AM 75.4 °F - 69.4 °F 82% 29.85 in 10.0 mi WNW 5.8 mph - N/A   Clear
4:34 AM 74.7 °F - 68.9 °F 82% 29.85 in 10.0 mi NW 6.9 mph - N/A   Clear
4:53 AM 74.5 °F - 68.7 °F 82% 29.86 in 10.0 mi NW 6.9 mph - N/A   Clear
5:14 AM 73.9 °F - 68.2 °F 82% 29.86 in 10.0 mi NW 5.8 mph - N/A   Clear
5:34 AM 73.2 °F - 68.0 °F 84% 29.87 in 10.0 mi NW 4.6 mph - N/A   Clear
5:53 AM 72.5 °F - 67.5 °F 84% 29.87 in 10.0 mi NW 5.8 mph - N/A   Clear
6:14 AM 72.0 °F - 67.1 °F 85% 29.87 in 10.0 mi NW 4.6 mph - N/A   Clear
6:34 AM 71.6 °F - 66.9 °F 85% 29.88 in 10.0 mi NW 3.5 mph - N/A   Clear
6:54 AM 71.1 °F - 66.6 °F 86% 29.89 in 10.0 mi Calm Calm - N/A   Clear
7:13 AM 70.7 °F - 66.4 °F 86% 29.90 in 10.0 mi NNW 3.5 mph - N/A   Clear
7:34 AM 71.2 °F - 66.7 °F 86% 29.90 in 10.0 mi NNW 3.5 mph - N/A   Clear
7:54 AM 71.6 °F - 66.9 °F 85% 29.90 in 10.0 mi North 4.6 mph - N/A   Mostly Cloudy
8:14 AM 71.8 °F - 66.7 °F 84% 29.91 in 10.0 mi North 9.2 mph 16.1 mph N/A   Overcast
8:33 AM 71.6 °F - 66.6 °F 84% 29.92 in 5.0 mi North 6.9 mph - N/A   Haze
8:54 AM 71.8 °F - 66.6 °F 84% 29.92 in 7.0 mi North 5.8 mph - N/A   Overcast
9:13 AM 72.1 °F - 65.7 °F 80% 29.92 in 10.0 mi NNE 5.8 mph 16.1 mph N/A   Overcast
9:34 AM 72.7 °F - 65.3 °F 78% 29.93 in 10.0 mi NNE 6.9 mph - N/A   Overcast
9:54 AM 73.4 °F - 63.9 °F 72% 29.94 in 10.0 mi North 8.1 mph - N/A   Overcast
10:14 AM 73.0 °F - 63.5 °F 72% 29.94 in 10.0 mi North 10.4 mph - N/A   Overcast
10:33 AM 73.8 °F - 63.0 °F 69% 29.95 in 10.0 mi North 9.2 mph - N/A   Overcast
10:54 AM 73.4 °F - 63.0 °F 70% 29.95 in 10.0 mi North 10.4 mph - N/A   Overcast
11:14 AM 72.5 °F - 61.9 °F 69% 29.95 in 10.0 mi NE 8.1 mph - N/A   Overcast
11:34 AM 73.8 °F - 61.7 °F 66% 29.95 in 10.0 mi NNE 9.2 mph - N/A   Mostly Cloudy
11:53 AM 74.8 °F - 62.1 °F 64% 29.95 in 10.0 mi NNE 8.1 mph 17.3 mph N/A   Mostly Cloudy
12:14 PM 75.6 °F - 62.2 °F 63% 29.95 in 10.0 mi North 10.4 mph 16.1 mph N/A   Scattered Clouds
12:33 PM 76.3 °F - 62.2 °F 62% 29.94 in 10.0 mi NE 8.1 mph 17.3 mph N/A   Mostly Cloudy
12:54 PM 76.8 °F - 62.1 °F 60% 29.94 in 10.0 mi North 8.1 mph - N/A   Scattered Clouds
1:14 PM 77.7 °F - 63.0 °F 60% 29.94 in 10.0 mi North 9.2 mph 16.1 mph N/A   Scattered Clouds
1:34 PM 77.2 °F - 62.1 °F 59% 29.94 in 10.0 mi North 9.2 mph - N/A   Scattered Clouds
1:54 PM 78.6 °F - 62.4 °F 57% 29.95 in 10.0 mi NE 8.1 mph - N/A   Scattered Clouds
2:14 PM 78.4 °F - 62.1 °F 57% 29.95 in 10.0 mi NNE 5.8 mph - N/A   Scattered Clouds
2:33 PM 79.0 °F - 61.9 °F 56% 29.94 in 10.0 mi North 10.4 mph - N/A   Scattered Clouds
2:54 PM 79.9 °F - 62.4 °F 55% 29.93 in 10.0 mi NE 6.9 mph - N/A   Clear
3:14 PM 79.3 °F - 62.2 °F 56% 29.93 in 10.0 mi North 5.8 mph - N/A   Scattered Clouds
3:34 PM 80.1 °F 81.4 °F 62.4 °F 55% 29.93 in 10.0 mi North 9.2 mph - N/A   Scattered Clouds
3:54 PM 80.4 °F 81.6 °F 62.4 °F 54% 29.92 in 10.0 mi ENE 6.9 mph - N/A   Scattered Clouds
4:14 PM 81.3 °F 82.3 °F 62.2 °F 52% 29.92 in 10.0 mi NE 6.9 mph - N/A   Scattered Clouds
4:34 PM 81.7 °F 82.9 °F 63.0 °F 53% 29.92 in 10.0 mi NE 4.6 mph - N/A   Clear
4:54 PM 80.8 °F 81.9 °F 62.4 °F 53% 29.91 in 10.0 mi NE 3.5 mph - N/A   Clear
5:14 PM 80.6 °F 81.8 °F 62.4 °F 54% 29.91 in 10.0 mi ENE 5.8 mph - N/A   Clear
5:34 PM 80.1 °F 81.5 °F 63.1 °F 56% 29.90 in 10.0 mi NNW 4.6 mph - N/A   Scattered Clouds
5:53 PM 81.5 °F 82.7 °F 62.6 °F 53% 29.90 in 10.0 mi North 5.8 mph - N/A   Scattered Clouds
6:14 PM 81.1 °F 82.3 °F 62.8 °F 53% 29.90 in 10.0 mi NE 5.8 mph - N/A   Clear
6:34 PM 81.0 °F 82.2 °F 63.0 °F 54% 29.90 in 10.0 mi NNE 4.6 mph - N/A   Scattered Clouds
6:53 PM 80.2 °F 81.6 °F 63.1 °F 56% 29.89 in 10.0 mi Calm Calm - N/A   Clear
7:14 PM 79.5 °F - 63.3 °F 58% 29.90 in 10.0 mi Calm Calm - N/A   Clear
7:33 PM 78.4 °F - 63.7 °F 60% 29.90 in 10.0 mi Calm Calm - N/A   Clear
7:54 PM 76.1 °F - 64.4 °F 67% 29.90 in 10.0 mi Calm Calm - N/A   Clear
8:14 PM 74.5 °F - 64.0 °F 70% 29.90 in 10.0 mi North 3.5 mph - N/A   Clear
8:34 PM 73.2 °F - 64.4 °F 74% 29.89 in 10.0 mi Calm Calm - N/A   Clear
8:54 PM 72.0 °F - 64.4 °F 77% 29.89 in 10.0 mi North 3.5 mph - N/A   Clear
9:13 PM 70.9 °F - 63.9 °F 78% 29.89 in 10.0 mi Calm Calm - N/A   Clear
9:34 PM 70.3 °F - 63.7 °F 79% 29.89 in 10.0 mi NNE 3.5 mph - N/A   Clear
9:54 PM 70.0 °F - 63.3 °F 79% 29.89 in 10.0 mi North 3.5 mph - N/A   Clear
10:14 PM 68.7 °F - 63.5 °F 83% 29.89 in 10.0 mi Calm Calm - N/A   Clear
10:34 PM 68.4 °F - 62.8 °F 82% 29.88 in 10.0 mi Calm Calm - N/A   Clear
10:54 PM 68.0 °F - 62.6 °F 83% 29.88 in 10.0 mi Calm Calm - N/A   Clear
11:14 PM 67.3 °F - 61.7 °F 82% 29.89 in 10.0 mi Calm Calm - N/A   Clear
11:34 PM 66.6 °F - 61.3 °F 83% 29.90 in 10.0 mi Calm Calm - N/A   Clear
11:54 PM 66.2 °F - 61.5 °F 85% 29.89 in 10.0 mi Calm Calm - N/A   Clear